Theta_e
352 352 353 355 356 355 356 356 354 353 352 350 348 348 348 348 350 360 370 361 348 345 347 345 345 346 345 347 347 345 346 347 349 351 351 353 354 354 355 356 356 357 357 357 357 357 357 358 358 358 358 358 357 357 358 359 359 358 358 358 357 356 355 354 353 353 352 350 348 347 345 345 344 344
354 354 354 355 356 356 356 356 355 353 352 351 351 350 350 350 350 352 360 363 354 347 348 348 348 348 348 348 347 344 346 348 351 353 354 355 356 357 357 358 357 358 358 358 358 359 358 359 359 359 358 359 360 360 360 359 358 358 358 358 358 356 354 353 353 352 352 352 350 348 347 346 346 345
355 354 355 355 356 357 356 356 356 354 353 353 352 352 351 352 353 350 352 359 356 350 351 352 351 352 351 349 347 345 346 348 351 354 354 356 357 357 357 357 357 358 358 358 358 358 359 359 360 360 361 361 360 359 358 358 358 358 358 356 352 350 347 346 346 346 347 349 349 349 348 348 347 346
355 355 354 355 355 356 357 356 356 355 354 354 353 354 353 352 354 353 353 355 353 352 353 353 352 353 352 350 347 347 347 347 349 351 352 354 354 354 356 357 357 357 358 359 358 358 359 361 361 361 362 360 357 357 357 358 358 356 352 349 346 345 345 344 344 344 345 345 347 347 348 349 348 346
356 355 354 354 353 354 355 356 355 355 355 355 353 354 354 353 355 354 353 353 352 353 354 353 353 352 352 350 348 350 349 346 347 349 349 350 352 355 357 358 358 359 359 357 356 358 360 361 361 360 358 357 356 357 358 357 354 350 346 345 344 344 344 342 343 344 345 346 347 346 346 348 348 347
354 354 355 355 353 352 354 354 355 355 354 354 354 353 354 354 354 354 354 354 354 354 354 354 353 352 352 352 351 353 353 349 350 350 348 348 352 356 358 358 360 359 356 356 356 358 360 360 358 357 356 357 357 357 356 354 350 347 345 344 343 342 341 342 342 343 344 345 346 347 346 346 347 347
352 352 354 355 353 352 352 352 353 354 353 353 353 352 353 353 354 354 355 355 354 355 355 355 354 353 353 353 353 354 355 353 354 354 352 350 354 358 359 358 357 356 356 357 359 359 359 358 357 356 357 357 357 356 353 349 346 344 342 340 340 340 339 340 341 341 342 343 344 345 346 346 347 347
352 351 352 353 353 353 352 351 351 354 354 354 354 353 353 354 354 355 355 355 356 355 355 355 355 354 354 354 355 356 356 355 354 355 354 352 355 359 357 354 353 355 358 358 358 358 357 356 356 356 356 355 354 351 346 343 341 340 339 339 338 338 338 338 339 340 340 341 342 342 344 345 346 346
356 355 352 351 352 353 353 351 351 353 355 355 354 354 354 354 355 355 355 355 356 355 356 356 355 355 354 355 356 356 357 356 355 356 354 351 355 358 353 352 355 358 359 358 358 358 356 355 356 355 353 350 346 343 340 340 339 338 337 337 336 336 336 336 337 338 339 339 340 340 341 343 344 345
355 355 355 353 352 354 354 352 350 351 354 355 355 355 355 355 355 355 356 356 356 355 356 355 355 355 355 356 356 356 356 357 357 357 353 349 353 355 351 352 357 359 359 358 358 357 355 355 353 350 346 343 339 339 339 338 338 336 335 334 334 333 333 332 332 334 336 338 339 340 340 341 342 343
354 355 355 354 353 353 354 355 352 351 351 353 354 355 355 355 355 355 356 356 356 356 355 355 355 356 356 356 356 356 356 356 356 356 353 350 352 351 351 354 358 359 359 359 358 356 354 353 350 345 342 340 338 339 338 337 335 333 333 333 332 329 326 324 324 325 329 333 336 338 339 341 341 341
354 355 355 354 353 352 352 354 354 353 352 351 353 352 353 355 355 355 356 356 356 355 355 355 355 356 356 356 355 355 355 356 355 354 353 352 350 349 350 355 357 359 359 358 358 355 353 351 347 342 339 339 338 338 337 334 333 332 332 330 327 323 321 321 321 321 322 327 333 336 338 341 342 342
354 354 354 354 353 351 350 351 353 354 352 352 353 352 352 354 355 356 356 356 356 355 355 355 355 356 355 355 355 355 355 356 355 353 351 350 349 348 352 356 357 359 360 359 358 356 351 348 344 339 339 339 338 337 335 332 332 331 330 326 322 320 320 320 321 322 322 324 330 334 337 340 342 342
353 353 353 352 351 352 351 351 351 352 351 353 353 353 353 355 356 357 357 357 356 355 356 355 355 355 355 354 355 355 355 355 354 352 350 349 349 350 353 355 356 358 360 359 359 356 350 346 342 337 338 338 337 336 333 331 331 329 326 323 320 319 320 320 320 322 323 324 329 333 335 338 341 342
352 352 352 352 351 352 352 351 349 349 351 353 354 354 354 354 355 356 357 357 357 356 356 355 355 355 355 354 354 355 355 355 353 352 351 350 350 351 353 355 356 357 359 359 359 356 351 346 340 337 337 337 336 334 332 330 330 327 323 320 319 319 319 320 321 321 322 323 325 330 333 336 338 340
352 352 352 353 353 352 351 350 349 349 349 351 353 354 354 354 354 355 356 357 357 356 356 356 355 355 355 354 354 354 355 353 353 353 352 352 351 351 352 354 356 357 359 359 358 356 352 347 339 336 337 337 335 333 331 329 328 325 322 319 319 319 319 320 320 321 321 322 322 325 328 332 336 337
353 353 353 353 353 353 352 351 350 350 349 349 350 351 352 352 352 352 354 355 356 356 357 356 357 356 356 355 354 353 354 354 353 354 355 354 353 352 353 354 356 357 358 358 357 355 352 347 339 335 337 337 335 333 330 328 327 324 320 319 318 319 319 319 320 320 320 320 322 323 324 328 332 334
353 353 354 354 354 353 353 352 351 350 349 349 350 351 351 351 351 350 351 352 354 355 356 356 356 355 355 355 353 352 353 354 354 355 357 357 355 354 355 356 356 358 358 357 355 353 350 347 338 335 337 336 335 333 329 327 326 323 320 319 318 318 319 319 319 319 319 321 322 324 324 325 328 331
353 353 353 353 353 353 353 352 351 350 350 350 351 351 351 351 351 351 350 350 351 352 353 354 353 353 352 353 352 352 353 354 356 358 359 359 358 357 358 357 357 358 358 356 354 351 348 345 338 333 335 337 335 332 329 327 325 322 319 319 318 318 318 318 319 319 320 321 322 323 324 325 326 328
354 354 353 354 354 354 353 353 352 351 351 352 352 352 353 352 352 352 350 351 352 352 353 353 351 351 350 351 352 352 353 355 358 360 360 359 358 357 357 357 357 357 357 355 354 350 345 343 338 333 333 337 336 331 328 327 324 321 319 319 318 318 318 318 319 319 320 322 322 323 324 325 326 327
354 354 354 354 354 354 354 354 353 352 353 354 354 354 354 354 354 353 351 352 353 354 354 353 352 350 350 351 352 353 354 356 359 360 359 358 358 356 355 356 357 357 356 355 353 349 344 341 338 332 331 336 336 332 327 326 323 320 319 318 318 318 318 317 318 319 320 320 322 323 323 325 327 328
354 354 354 354 355 354 354 354 354 353 354 355 355 354 355 355 355 354 351 352 354 354 353 352 352 351 350 350 352 353 355 357 360 359 358 358 357 356 356 356 356 356 356 354 351 346 341 339 336 330 326 331 334 330 327 326 322 319 318 318 317 318 318 317 317 318 319 320 321 322 323 325 328 329
354 355 355 355 355 355 354 355 355 354 355 355 355 355 354 354 354 354 353 353 354 354 353 353 352 352 352 351 352 355 357 359 359 357 358 358 358 356 357 357 355 355 356 355 350 343 338 337 334 327 324 329 331 328 326 325 321 318 318 317 317 317 317 317 317 317 318 319 319 320 322 323 327 329
355 355 355 355 355 355 355 356 355 355 355 355 355 355 355 355 354 353 354 354 354 354 354 353 353 353 353 353 355 357 358 359 358 357 357 359 358 357 358 358 357 356 355 354 349 341 336 335 331 325 323 327 328 326 326 324 320 318 318 317 317 317 316 316 316 316 317 318 318 319 320 322 324 328
354 355 354 355 355 355 355 355 355 356 355 355 355 355 355 355 355 354 355 355 355 355 355 355 355 354 355 355 356 358 358 357 358 358 359 360 360 359 360 359 359 358 357 353 346 339 335 332 328 324 324 326 328 326 325 323 318 317 317 316 316 316 316 316 316 316 317 318 318 318 318 320 322 325
354 355 355 355 355 355 355 355 355 356 356 356 356 356 356 356 355 356 356 356 356 356 356 355 356 356 356 357 357 358 358 358 358 359 360 359 359 359 360 359 358 357 356 350 342 338 336 331 325 323 324 327 328 327 325 321 318 317 317 317 316 315 315 315 315 316 316 317 317 318 317 318 320 322
355 355 355 355 355 356 356 356 355 356 356 357 357 357 357 356 357 358 359 358 358 356 356 356 357 357 358 358 358 358 358 358 359 359 359 358 358 357 357 355 353 349 345 341 338 337 337 331 323 321 324 327 327 327 324 320 318 318 317 316 316 315 315 315 315 315 316 315 316 316 316 317 319 319
355 355 356 356 356 355 355 356 356 356 356 357 357 357 357 358 359 359 360 360 359 358 357 357 358 359 359 359 359 358 358 358 359 359 358 357 355 354 352 348 343 338 335 336 337 337 336 331 324 322 325 327 326 326 323 320 318 317 317 317 316 315 315 315 315 315 315 315 315 315 315 316 316 317
356 356 356 357 356 357 356 357 357 357 357 357 356 357 357 358 358 358 358 359 358 358 357 359 359 359 359 358 357 357 358 359 358 357 356 353 350 349 345 340 337 335 335 337 337 335 334 331 325 323 324 326 325 323 322 320 318 317 317 317 316 315 315 314 315 314 315 315 315 314 314 314 315 316
356 356 357 357 357 357 358 357 357 357 357 357 357 357 356 357 356 357 356 356 355 355 355 355 355 356 355 355 355 357 359 359 358 357 353 348 345 344 340 337 336 337 338 336 335 333 332 328 324 323 324 325 325 323 321 320 318 318 318 317 316 316 315 314 314 314 314 314 314 315 314 314 314 314
357 356 356 356 357 357 357 357 357 357 357 357 357 357 357 357 357 357 356 355 355 354 354 354 355 354 353 354 356 357 359 358 358 355 351 346 344 341 338 337 338 337 336 334 332 332 331 328 324 323 323 324 323 322 321 320 319 319 318 317 317 316 314 314 314 314 314 314 314 314 314 314 313 314
357 356 355 355 355 356 356 356 356 356 356 356 357 357 357 357 356 357 356 356 356 355 355 355 355 355 355 356 357 358 358 357 356 354 349 345 343 339 335 336 337 335 332 331 331 331 331 328 324 323 322 322 322 321 321 321 320 320 319 318 318 316 315 314 314 314 313 314 314 314 314 314 314 313
356 354 351 352 353 353 354 355 355 355 355 356 356 356 357 357 357 357 357 357 358 358 358 357 356 356 356 356 356 358 356 355 355 352 347 343 341 338 336 336 336 333 331 331 331 330 330 328 325 323 322 322 321 321 321 321 321 320 320 319 318 317 315 314 314 314 314 313 313 314 314 313 313 313
351 350 350 350 350 351 352 353 354 354 355 355 356 356 357 357 357 357 357 358 358 358 359 358 356 356 356 356 356 356 354 354 354 350 345 343 341 338 336 336 335 333 332 332 331 329 328 327 325 323 323 323 322 321 322 322 322 321 320 320 319 318 317 315 314 314 313 313 313 313 313 313 313 313
349 348 348 349 350 350 351 352 353 353 354 355 355 356 356 357 357 358 358 358 356 356 358 358 356 356 355 355 356 356 354 354 353 347 344 342 339 337 336 336 335 333 333 333 332 329 327 326 324 324 324 323 323 323 322 322 322 321 321 321 320 318 317 316 314 313 313 313 313 313 313 313 313 313
350 348 349 349 350 351 351 352 353 353 353 354 355 355 356 357 357 358 359 358 358 357 358 357 355 354 354 355 355 355 354 353 350 347 344 340 336 335 335 334 333 334 334 334 333 331 328 326 325 324 323 322 325 328 326 322 322 322 321 321 320 319 319 317 315 314 313 313 313 313 313 314 313 312
350 350 350 350 351 351 352 353 353 353 354 354 354 355 356 357 358 357 356 357 358 358 357 355 353 354 354 355 355 354 353 352 350 346 342 337 335 335 335 333 333 334 334 334 333 331 329 327 325 324 323 324 331 336 329 322 321 322 321 321 321 320 319 318 316 315 313 313 313 313 313 314 313 312
351 351 350 350 351 351 352 353 353 353 354 354 355 355 356 357 358 356 353 352 353 354 354 354 353 352 353 354 352 350 349 349 347 342 337 335 335 333 333 334 335 335 333 332 332 332 331 328 326 324 323 325 332 336 330 323 322 323 322 322 322 320 320 319 317 316 314 314 313 313 313 314 313 312
352 351 351 351 351 351 352 353 353 353 354 354 355 355 355 356 357 354 350 348 349 350 351 352 351 351 352 353 352 350 349 348 343 337 335 335 334 333 333 334 335 333 331 331 332 331 330 328 328 326 324 323 327 329 326 322 322 322 322 322 322 321 320 320 318 317 315 314 313 313 312 313 313 312
350 351 351 352 351 352 352 353 352 353 353 353 354 354 354 354 355 353 350 348 348 348 347 348 349 349 350 351 352 350 348 345 341 337 335 334 334 334 333 332 334 333 332 330 330 330 330 329 329 329 328 326 326 325 323 322 322 322 322 322 322 322 321 320 319 318 316 315 314 313 312 312 313 312
348 349 350 351 350 351 351 351 352 351 351 351 352 352 352 353 353 352 351 348 347 347 346 346 348 348 349 350 350 349 346 343 341 339 336 335 335 335 332 330 332 334 332 330 330 330 330 331 331 330 329 327 325 324 322 322 322 323 323 323 322 322 321 321 320 319 317 316 314 313 311 311 313 312
350 350 350 350 350 350 350 350 350 350 350 351 350 349 349 350 350 351 350 349 347 347 346 346 347 349 349 350 349 347 345 342 340 339 337 336 336 334 332 331 332 332 330 329 329 329 329 330 331 330 328 327 325 323 322 322 322 322 323 323 323 322 321 321 321 319 318 317 315 313 312 311 311 311
350 350 351 350 349 348 348 348 349 349 349 349 349 347 347 348 348 349 349 348 346 346 346 346 347 348 348 347 346 344 343 341 339 337 335 335 336 334 333 333 334 332 329 328 327 328 328 329 330 329 328 328 326 324 323 323 323 323 323 322 322 322 321 321 321 320 319 318 316 315 313 311 311 312
350 350 350 350 348 347 347 347 347 348 348 348 348 348 347 346 346 347 347 346 346 346 345 346 347 347 347 345 343 341 340 339 338 336 333 334 335 335 334 335 335 332 330 328 328 328 328 329 329 328 328 328 327 326 325 325 325 324 323 322 322 322 322 321 321 320 319 318 317 316 314 312 310 311
349 349 349 348 347 346 346 347 347 347 346 347 347 346 345 345 345 345 347 347 347 346 346 347 346 346 345 343 340 338 337 336 335 334 333 334 335 335 333 333 333 331 329 328 328 328 328 328 328 328 327 328 327 326 326 325 325 324 323 323 323 324 324 323 321 320 319 319 318 317 315 313 311 310
Wind_Speed
11 14 14 13 11 10 9 8 8 9 8 4 4 6 6 4 2 1 2 4 3 3 5 5 4 6 9 11 12 12 12 13 14 14 15 16 17 17 17 18 18 18 18 18 18 19 20 20 21 21 22 22 22 21 21 20 19 19 20 20 21 20 20 20 20 20 21 22 24 26 27 29 30 30
11 13 15 15 14 12 10 10 10 10 9 7 6 7 7 6 5 3 2 3 4 5 6 7 7 10 11 12 13 13 13 14 15 16 17 17 18 18 18 18 18 18 19 19 19 19 20 20 20 20 20 19 18 18 17 17 18 18 19 19 18 18 17 17 17 17 17 17 18 19 21 23 25 27
12 13 14 16 16 14 12 12 11 11 9 8 8 8 8 7 8 7 4 2 5 7 9 11 12 13 14 14 15 15 15 16 17 18 18 18 18 18 18 17 17 18 19 19 18 17 17 17 17 17 17 16 16 16 16 17 18 18 17 16 16 16 17 17 17 18 17 17 16 15 16 17 19 22
15 15 15 16 17 16 15 13 11 11 10 9 8 8 8 8 9 10 7 6 9 14 15 15 15 14 16 16 16 17 17 17 18 19 18 19 19 19 18 17 17 18 18 17 16 16 16 15 15 15 16 16 16 16 16 17 17 15 15 15 16 18 19 20 20 19 19 18 17 16 15 14 15 17
19 19 18 18 17 17 17 16 13 12 11 10 9 9 9 10 11 12 11 10 13 18 18 17 16 16 17 17 17 19 20 20 20 20 19 20 20 19 19 18 16 16 16 17 17 15 15 15 15 15 15 15 15 15 16 16 14 14 15 17 19 20 21 20 20 19 18 18 18 17 16 15 14 14
23 22 22 21 19 18 18 18 17 14 14 13 14 13 12 13 13 13 14 13 13 18 21 20 19 18 18 18 19 19 21 22 22 21 21 21 20 19 18 16 15 16 17 17 16 14 15 15 15 14 14 14 14 15 14 13 13 15 18 19 20 19 18 17 16 16 17 17 17 17 17 16 15 14
24 24 24 24 22 20 19 19 19 17 16 16 16 16 16 16 15 14 15 15 15 18 22 22 21 20 19 20 20 20 21 22 22 21 22 21 19 16 15 15 16 17 16 15 15 16 15 14 14 14 14 14 13 12 12 13 15 17 18 18 17 17 16 15 15 15 15 15 16 17 17 16 15 14
24 24 25 25 24 23 21 20 19 18 17 17 17 17 16 16 17 15 15 16 16 18 20 22 22 21 21 22 21 21 22 21 21 21 22 21 17 13 14 17 18 16 15 16 17 17 15 14 14 14 13 12 11 12 13 15 16 16 16 17 17 17 17 16 15 15 15 15 16 16 16 16 16 14
26 25 25 25 24 24 24 22 21 20 19 19 18 19 18 17 17 17 17 17 17 17 20 23 24 22 22 23 23 22 21 22 23 23 22 20 15 14 17 18 16 15 15 18 19 16 14 14 13 12 11 11 12 13 14 15 15 15 16 17 17 18 18 18 17 16 15 15 15 16 16 16 16 15
28 28 27 27 25 24 24 24 22 22 21 20 19 19 19 18 17 18 18 19 18 18 20 22 24 24 24 23 23 22 20 22 23 23 23 21 16 16 19 18 16 14 15 18 19 15 13 13 12 10 11 11 13 14 14 14 15 16 17 17 18 20 20 20 19 17 16 15 15 16 16 16 16 15
29 29 29 28 27 26 25 25 24 23 23 23 22 22 20 19 19 19 20 20 20 20 20 21 23 24 24 23 22 23 23 23 22 20 21 22 20 18 18 17 16 14 15 19 20 14 11 11 10 10 11 12 13 13 13 15 16 17 18 19 20 22 22 22 20 18 16 15 14 15 14 14 14 14
30 30 30 29 29 28 28 27 26 25 24 23 23 23 22 21 21 21 21 21 21 20 20 21 23 23 24 24 23 24 23 21 21 20 19 21 21 19 17 16 15 15 15 19 19 14 9 9 9 11 12 12 12 13 14 16 17 18 20 21 23 24 25 24 22 19 17 15 14 14 13 13 13 13
31 31 31 31 30 30 29 29 28 27 26 24 24 22 21 21 21 21 21 21 21 21 20 21 22 22 23 25 23 23 21 19 20 20 19 18 18 17 17 15 14 13 15 19 19 13 9 9 10 12 12 11 12 13 15 17 18 20 22 23 25 26 26 24 22 20 18 15 14 14 13 12 11 12
32 31 32 32 31 30 30 30 29 29 27 26 25 24 22 22 22 22 22 22 22 21 20 21 21 20 22 25 23 21 21 20 20 19 17 16 15 15 17 16 14 14 16 20 19 12 8 9 11 12 11 10 11 13 15 17 19 21 23 26 27 27 25 24 23 21 19 16 14 13 13 11 10 11
33 33 32 32 32 31 30 30 29 29 29 28 27 26 25 24 24 24 24 24 23 21 21 22 21 19 22 27 25 22 23 21 20 18 16 15 14 13 12 12 14 15 17 20 18 10 6 9 12 11 9 9 11 13 15 17 19 21 25 27 28 26 25 24 23 22 20 18 16 14 12 11 10 11
34 33 33 32 32 31 31 30 29 29 30 30 29 28 26 25 25 25 26 26 25 24 23 23 23 23 24 27 27 25 24 21 19 19 18 16 14 12 10 11 13 15 16 18 16 10 6 8 11 10 7 7 9 12 14 17 19 22 25 27 27 26 25 24 23 22 21 20 18 16 13 12 11 11
34 34 33 32 32 33 32 31 30 30 30 30 30 29 28 27 26 26 26 27 28 28 27 26 28 28 27 28 29 27 25 23 22 21 20 18 15 13 13 14 15 16 16 15 13 9 7 7 10 9 6 5 8 11 14 16 19 23 26 27 27 26 25 24 24 22 21 20 19 17 14 12 11 10
34 34 33 33 33 34 33 32 31 30 30 30 30 29 29 28 26 26 26 27 27 29 29 30 32 32 30 30 30 28 26 25 24 22 21 19 17 16 17 17 17 16 14 12 9 7 6 7 9 8 5 4 6 10 13 15 20 24 26 26 26 26 25 24 24 23 21 19 19 19 16 13 11 10
35 34 34 34 34 34 34 34 33 32 31 30 29 30 29 29 28 27 27 27 27 28 29 30 31 31 30 31 31 29 27 26 25 23 21 20 19 18 18 19 17 14 11 9 6 5 7 7 8 8 5 4 6 9 11 14 20 24 25 26 26 25 25 25 24 23 21 19 20 21 20 17 13 10
36 36 35 34 35 35 36 35 34 33 31 30 29 30 31 30 30 30 28 27 27 28 29 29 28 27 27 28 29 29 27 24 24 23 22 22 20 17 16 19 17 12 9 8 7 6 7 8 8 7 5 6 6 9 10 14 19 23 24 25 25 25 25 25 25 24 22 20 19 21 22 20 16 11
36 37 37 36 36 36 37 37 36 34 32 30 30 30 31 31 32 32 31 30 30 29 29 29 29 28 26 26 26 25 24 22 23 23 23 23 21 15 12 14 14 11 9 9 8 7 7 8 8 7 5 7 8 8 10 13 18 22 23 24 25 26 26 26 25 24 22 20 19 20 22 22 19 14
37 37 38 37 36 37 37 38 37 35 32 30 30 31 31 30 31 33 33 32 31 30 30 30 29 28 26 25 24 24 22 21 22 23 24 24 20 15 13 13 13 11 11 11 9 6 6 7 7 7 6 6 8 7 9 12 17 21 21 22 24 26 26 26 25 24 23 21 19 19 20 21 21 18
36 37 38 37 37 37 38 38 38 35 33 31 31 31 30 29 31 34 34 32 32 31 30 30 29 27 25 24 23 23 22 21 21 23 25 24 20 18 18 16 12 8 8 9 9 6 5 5 4 6 6 4 5 5 8 11 17 20 20 20 23 25 26 27 26 25 24 22 20 19 18 19 20 19
35 35 36 37 37 37 38 39 38 36 34 32 32 31 29 29 33 35 33 32 32 31 30 30 28 27 25 23 23 23 22 21 21 22 21 20 17 17 17 17 14 10 8 9 9 7 5 4 2 2 3 3 4 6 7 10 17 20 18 18 22 25 26 27 27 26 25 23 21 20 19 18 18 17
35 35 36 36 37 37 38 38 38 37 35 34 32 32 31 33 34 34 33 33 32 30 30 29 28 26 24 23 23 23 22 21 20 20 18 16 15 15 16 17 17 17 14 11 10 8 6 4 2 1 2 3 4 7 8 10 16 19 16 16 22 25 25 27 27 26 26 25 23 22 21 18 16 15
36 36 36 37 37 37 36 36 36 35 35 34 33 34 34 34 34 33 33 33 32 30 30 28 27 25 24 23 23 22 22 21 20 20 19 17 16 17 18 17 16 15 13 12 11 8 6 4 2 1 3 4 3 4 7 9 13 17 15 14 20 25 24 25 26 25 25 25 24 23 23 21 18 15
38 38 38 38 37 36 35 35 34 33 33 33 34 34 34 33 33 32 31 32 32 31 29 27 26 25 24 23 23 24 23 23 22 22 20 18 18 18 16 15 13 11 10 11 10 8 6 3 1 1 2 3 3 1 3 6 10 16 16 13 16 22 24 23 24 24 23 23 23 23 23 22 21 18
39 38 38 38 38 37 36 35 34 33 33 33 33 32 32 31 30 29 29 30 30 29 28 26 27 27 26 25 25 26 25 24 23 22 20 18 18 16 14 12 11 9 9 10 10 8 5 2 1 1 1 1 2 2 1 4 8 14 17 14 13 17 22 22 22 22 22 21 23 25 25 25 23 22
41 40 39 38 37 36 35 34 33 33 33 32 32 31 30 30 29 29 30 31 30 28 27 27 28 29 30 29 29 28 26 24 23 20 17 16 15 14 13 12 10 9 9 10 10 8 5 1 1 1 2 3 3 3 3 4 7 11 15 15 12 13 18 21 20 20 21 21 22 24 26 25 25 23
43 42 39 38 36 34 33 33 32 33 32 31 30 29 29 29 30 31 32 32 31 30 29 30 31 33 33 32 30 27 25 24 22 19 18 18 18 16 16 14 12 12 13 14 12 10 6 3 2 2 4 6 5 4 3 3 7 9 11 14 13 10 14 18 18 19 20 20 21 22 23 23 24 23
45 43 39 36 34 33 32 31 30 30 28 27 26 26 27 28 29 29 30 31 31 31 30 31 31 32 31 30 28 26 25 24 21 19 20 22 21 19 17 16 16 18 19 18 15 12 9 6 4 3 5 7 7 5 3 1 5 7 8 11 12 10 12 16 17 18 19 18 19 21 22 23 23 22
46 43 37 34 32 31 29 28 27 25 24 24 24 25 26 26 27 27 28 29 30 31 30 30 30 30 29 29 28 27 24 22 20 19 23 25 24 22 19 20 22 24 23 20 17 14 12 8 6 6 6 7 8 6 4 2 2 5 6 8 10 10 11 14 15 17 18 18 18 20 22 23 23 22
42 38 34 32 31 29 28 26 25 24 23 23 24 26 26 26 26 27 28 29 30 30 30 30 30 30 29 29 28 25 22 20 19 21 26 27 24 22 23 25 27 27 25 22 19 16 14 11 9 8 8 7 7 6 5 3 1 2 5 6 8 9 10 12 13 15 17 19 20 20 21 22 23 22
36 33 31 32 32 30 28 27 26 25 25 25 27 28 28 28 28 29 29 30 30 30 30 30 30 30 30 29 27 24 21 19 20 23 28 27 24 25 26 26 26 26 25 23 20 18 16 14 12 10 9 8 7 7 6 4 3 3 4 6 7 9 10 10 11 12 14 16 19 20 20 20 22 22
33 31 30 30 31 30 29 29 28 27 27 28 29 29 29 31 33 34 34 33 30 30 32 32 31 31 30 28 27 24 22 21 22 26 28 26 25 27 28 26 24 25 25 23 21 20 18 16 15 13 12 10 7 6 7 7 5 5 6 6 6 7 9 10 10 11 12 13 16 18 19 19 20 21
33 32 31 30 30 29 29 29 28 27 27 28 29 29 31 34 37 38 37 34 32 32 33 32 31 29 29 28 27 25 23 23 24 27 28 27 27 29 29 25 23 24 26 24 22 21 20 18 16 15 13 9 5 4 6 7 7 7 7 7 7 7 8 9 9 10 11 11 13 15 17 17 18 19
33 32 32 33 31 29 28 28 26 26 27 27 28 31 33 36 39 39 36 33 32 31 30 28 27 27 28 29 27 25 24 24 26 29 29 27 28 29 28 23 21 24 26 25 22 22 21 19 18 17 13 7 3 3 5 7 8 8 8 8 8 8 8 9 8 9 9 10 11 12 13 14 15 16
35 34 33 33 31 29 28 28 27 27 28 29 31 34 36 38 41 39 34 32 32 31 28 27 26 25 26 26 24 22 22 23 25 27 27 26 27 27 26 24 22 24 25 24 22 23 23 21 20 19 15 9 5 4 5 6 6 7 7 8 9 9 10 10 9 8 8 8 9 10 11 11 12 13
36 35 34 34 33 31 31 31 31 31 32 33 35 37 38 39 41 38 32 30 32 31 29 28 27 25 25 24 23 21 22 23 24 25 27 28 27 26 25 24 23 22 23 23 23 24 25 24 22 21 19 15 11 9 8 7 7 7 7 9 10 11 11 12 10 8 7 7 7 8 9 9 10 10
37 37 36 35 34 33 33 33 33 34 35 35 36 37 37 37 38 37 32 30 29 27 25 25 25 25 25 25 24 23 23 25 27 29 31 30 28 27 26 24 22 22 23 23 24 25 26 26 23 21 20 19 17 14 12 10 10 12 12 12 12 13 13 13 12 11 9 7 7 8 8 8 8 8
36 36 37 36 34 33 33 33 32 33 34 35 35 35 35 34 36 36 34 29 26 24 23 23 24 24 24 25 25 25 25 27 29 31 31 29 28 27 26 23 22 23 23 22 23 25 25 24 22 21 21 21 19 15 11 9 12 16 16 13 12 13 14 15 15 13 11 9 8 8 7 7 7 7
36 37 37 36 35 34 32 31 31 33 34 34 34 33 31 31 34 36 35 29 25 23 24 24 23 23 23 24 26 28 28 30 31 31 29 29 29 27 24 23 24 24 23 22 22 22 22 21 21 22 23 22 19 15 13 13 16 19 18 15 12 12 14 15 16 16 14 12 10 8 6 6 5 5
35 36 36 36 35 33 30 30 33 34 34 34 34 31 30 32 35 36 34 30 26 25 25 23 21 21 22 24 26 27 28 29 30 30 29 30 31 27 24 25 26 25 24 22 21 19 19 20 20 20 20 21 20 18 18 19 21 22 21 19 15 13 13 15 16 17 17 15 12 10 8 7 6 5
33 34 35 34 33 31 30 31 33 34 34 35 34 31 30 33 35 35 32 30 28 27 25 22 21 22 24 26 26 27 28 29 29 29 29 30 30 27 25 25 26 26 24 22 20 18 18 18 17 16 17 19 19 19 20 22 23 23 22 21 19 17 16 15 16 18 19 17 15 12 11 10 9 8
30 31 31 31 30 29 30 31 33 33 34 34 33 32 33 35 35 33 30 28 28 26 24 23 24 26 26 27 27 27 27 27 26 26 25 26 26 25 23 23 25 24 22 19 17 15 15 14 14 14 15 16 17 18 19 20 20 20 20 19 19 19 18 16 16 18 19 19 17 14 13 12 11 10
Wind_Direction
249 246 247 253 260 269 280 282 278 289 298 290 265 263 258 246 237 297 323 299 286 297 317 319 308 326 341 343 345 346 347 350 349 343 338 336 335 336 339 342 344 344 343 344 345 344 341 339 337 337 338 337 335 332 331 333 335 337 338 338 337 336 334 330 324 319 314 305 296 288 283 280 275 271
252 251 249 250 256 263 271 277 278 277 274 262 252 255 260 264 254 226 233 282 286 292 315 323 323 332 339 341 341 343 348 351 352 350 347 344 344 345 347 348 347 346 345 346 346 344 342 342 341 342 344 343 340 338 339 343 347 349 350 349 349 350 348 346 340 335 329 321 312 300 291 285 278 272
248 253 252 250 252 258 267 274 275 270 265 256 253 254 255 266 276 264 233 236 285 291 306 316 321 329 334 337 340 343 347 351 352 350 348 348 349 348 349 349 347 346 347 347 348 348 347 347 348 349 349 348 347 348 351 353 355 354 354 355 355 355 352 349 343 337 332 327 321 312 301 292 283 276
247 251 254 253 252 255 262 269 270 269 267 261 255 258 260 262 275 276 251 235 273 290 300 309 317 327 328 330 337 342 345 349 350 348 349 350 349 348 350 350 348 347 351 354 355 352 350 351 353 352 352 353 356 358 358 358 357 357 359 358 355 352 347 343 340 335 332 327 323 318 311 303 291 279
248 250 253 254 253 254 258 262 265 267 267 264 262 265 267 265 268 271 263 255 275 293 300 305 313 321 324 327 336 341 342 344 346 345 349 350 348 348 349 348 349 353 358 359 357 356 356 357 357 357 358 1 1 360 359 0 2 0 357 352 347 344 340 336 335 334 335 334 331 327 322 316 306 288
250 251 252 253 255 255 257 258 258 261 265 267 269 270 268 268 268 269 269 267 272 288 297 303 310 316 322 325 331 336 337 339 341 341 345 348 347 346 347 348 353 357 358 358 0 4 4 2 2 4 6 4 0 1 4 5 1 354 348 345 343 342 341 338 336 335 336 337 336 334 331 325 319 306
250 250 250 252 255 256 257 258 256 257 262 266 270 271 269 268 268 270 274 274 272 281 292 300 306 312 318 321 325 330 332 334 335 336 339 343 343 346 350 351 353 357 2 9 13 11 8 9 13 13 8 4 6 10 9 2 355 349 347 348 349 350 350 347 343 340 337 336 333 331 330 329 325 317
252 251 250 252 254 256 258 259 256 255 259 264 266 269 272 270 270 273 277 279 279 279 286 295 301 308 313 316 320 324 327 329 331 333 337 340 343 346 347 349 356 6 14 17 16 14 15 20 20 14 9 12 17 13 5 358 354 353 354 356 357 356 355 352 350 348 345 341 335 329 329 330 330 326
256 254 254 255 256 257 260 260 257 255 257 263 264 266 271 274 274 276 278 282 283 280 282 291 299 304 308 312 316 320 324 326 328 332 336 340 342 340 342 351 4 14 16 16 16 18 23 25 21 18 19 20 16 8 2 359 358 360 1 359 356 354 352 350 348 348 348 344 336 332 332 331 332 334
259 258 258 259 259 258 260 261 260 258 258 261 263 264 268 273 276 277 279 282 281 280 283 289 294 300 305 308 313 318 322 324 326 331 336 339 341 339 344 356 8 13 14 14 16 20 25 28 28 27 24 16 9 4 2 2 3 3 1 357 355 353 351 348 346 344 342 337 333 331 333 332 331 334
261 261 262 263 262 260 259 261 262 263 263 263 263 264 266 271 274 276 279 281 279 279 284 287 290 296 301 304 308 313 318 321 326 332 335 335 336 340 348 355 1 8 12 10 13 22 28 33 36 27 16 10 6 4 3 4 5 3 360 358 357 356 355 353 352 349 341 333 329 329 331 332 329 330
260 262 263 265 265 263 262 261 262 265 267 268 268 267 268 269 272 274 277 278 277 278 282 285 289 293 296 300 304 310 316 322 328 334 333 327 329 337 347 353 357 3 3 2 8 17 25 35 35 19 9 8 7 5 6 6 4 1 360 360 360 359 359 359 0 359 349 338 333 334 333 330 327 326
260 261 263 265 266 266 265 265 266 267 269 271 272 273 272 271 272 274 275 275 275 276 278 281 285 289 292 297 303 309 315 319 323 328 328 323 327 336 341 346 357 358 351 353 2 13 26 32 22 11 9 9 5 4 7 6 2 0 1 3 3 2 2 3 5 4 356 345 339 339 337 332 325 324
260 261 263 265 266 267 268 268 268 269 270 271 272 274 276 275 275 274 274 274 274 274 275 278 283 286 289 295 300 304 309 314 318 324 327 324 327 336 338 340 349 350 343 345 355 8 22 20 12 8 11 10 2 4 8 5 1 2 4 5 6 6 5 5 5 3 358 349 342 340 340 337 329 324
259 261 263 264 266 267 268 268 268 268 269 270 271 273 275 276 277 276 274 274 275 275 274 277 281 281 285 293 298 300 305 310 316 321 323 319 319 329 333 329 331 337 337 339 344 352 2 7 7 7 11 9 3 7 8 2 1 5 7 7 8 8 7 5 5 3 358 353 347 341 338 337 334 328
256 259 262 264 265 266 268 269 270 270 271 272 272 274 275 276 277 277 275 275 275 275 275 278 280 279 282 290 295 298 302 308 313 317 317 313 312 315 313 304 310 323 332 332 333 333 335 355 2 3 9 8 3 7 6 1 3 7 8 10 11 9 7 5 4 2 358 354 352 346 339 333 332 332
253 256 259 261 263 266 268 269 270 270 271 273 274 274 275 275 275 275 275 275 276 276 275 274 277 280 282 284 290 296 298 302 307 311 311 310 308 306 303 300 306 317 325 325 323 317 313 340 358 0 2 359 355 360 2 2 5 8 9 11 12 10 8 6 4 3 360 356 354 353 348 337 330 335
251 254 256 258 262 265 267 268 269 269 270 272 273 274 275 275 275 274 275 276 277 277 275 272 274 279 281 281 288 294 295 297 302 304 305 307 306 302 302 304 307 314 319 316 310 302 298 324 348 350 340 333 344 352 358 4 7 7 8 11 13 12 10 7 5 5 5 2 359 359 359 348 334 336
250 253 254 256 259 263 265 267 268 268 268 269 271 272 274 275 276 276 276 277 279 280 280 278 278 282 283 283 285 289 291 294 298 299 300 301 299 298 300 302 305 311 313 304 294 287 289 310 339 343 315 291 323 344 355 5 9 8 6 9 13 14 14 10 7 7 9 8 4 3 4 0 348 341
249 251 253 253 255 259 263 266 267 266 266 266 266 268 271 273 275 276 277 277 278 279 281 283 284 287 288 286 285 285 285 287 291 294 294 293 291 288 290 294 300 306 302 292 287 283 287 305 330 334 298 267 293 332 355 9 10 8 7 8 12 16 17 14 11 11 12 11 7 4 7 9 3 355
247 250 251 252 253 255 259 263 265 265 263 261 261 263 266 268 271 275 278 277 276 276 277 280 283 285 286 285 282 280 277 278 283 285 284 284 283 274 269 280 290 295 290 283 281 276 278 299 319 323 293 256 269 317 357 15 12 9 9 10 13 16 19 19 17 15 13 12 9 6 9 14 12 9
246 249 251 251 251 253 257 261 264 263 260 258 258 260 261 263 267 272 277 277 277 277 278 280 282 282 282 281 277 274 271 271 275 277 279 282 278 262 256 267 276 285 284 273 266 261 263 287 311 322 307 257 252 301 352 15 14 10 10 13 15 16 19 21 22 20 15 11 11 9 9 14 16 17
245 247 250 251 250 253 257 260 262 261 259 258 258 259 258 258 263 270 275 276 277 279 281 282 283 283 283 280 276 273 270 267 270 275 278 280 271 256 258 265 265 274 276 256 245 242 242 264 302 328 325 275 245 296 349 17 18 12 10 13 17 17 18 21 24 25 20 12 12 13 12 14 17 19
244 246 248 250 251 253 256 259 261 261 259 258 260 260 256 256 263 272 275 276 278 280 281 282 282 282 282 280 276 272 269 269 273 276 276 276 268 257 260 263 258 258 259 245 239 235 219 217 260 325 325 285 275 314 349 22 23 16 12 16 19 19 19 21 23 26 25 19 14 17 19 18 17 19
242 244 247 249 252 254 256 260 262 261 259 259 259 259 258 261 268 273 274 275 277 278 278 279 279 278 277 274 271 269 270 270 271 271 269 269 267 263 265 265 261 259 256 244 239 235 210 187 180 211 229 244 283 326 352 21 27 21 16 17 22 21 19 20 23 24 25 24 20 19 21 23 23 22
241 243 246 249 253 255 258 261 264 263 262 260 259 260 262 265 269 270 271 273 273 273 273 273 272 272 270 267 266 267 268 267 265 263 262 263 267 269 269 266 261 258 253 241 236 232 211 188 174 180 203 220 245 329 358 17 28 28 25 23 24 23 19 20 23 24 24 25 25 24 22 23 25 27
241 243 246 249 253 255 258 261 264 265 264 262 261 263 264 265 266 266 267 267 267 267 268 267 266 266 263 262 263 264 264 265 262 260 262 267 271 270 264 255 247 245 246 238 226 215 204 197 165 156 195 212 207 213 9 16 25 28 30 29 25 21 19 19 22 24 25 25 27 27 26 24 24 24
242 243 245 248 252 255 257 260 262 264 265 264 265 266 265 263 261 260 261 263 263 263 262 261 260 261 260 260 262 265 267 266 261 260 266 269 265 257 247 236 228 226 231 226 209 193 192 206 79 122 180 185 164 151 63 27 23 25 28 31 27 20 18 17 20 24 27 27 28 27 26 26 24 22
242 244 246 249 252 254 255 257 259 260 262 263 265 266 264 260 257 257 259 261 261 259 258 258 258 260 262 264 266 268 268 262 258 260 261 250 239 233 226 218 214 215 212 203 189 177 177 177 61 107 162 155 122 108 89 37 25 25 24 23 24 19 14 14 17 22 26 29 32 31 28 26 25 22
243 244 245 247 249 251 253 254 255 257 259 261 263 263 261 260 259 259 261 261 259 258 257 257 258 261 265 267 267 266 261 256 258 259 245 228 220 219 214 203 194 192 188 183 178 173 164 131 86 115 155 156 142 118 101 41 25 29 22 16 17 17 11 11 14 19 24 29 33 33 32 29 27 23
241 241 241 243 245 247 250 251 252 254 255 257 258 259 259 259 259 260 262 262 262 261 260 259 261 264 266 265 263 259 255 255 258 250 229 218 212 207 201 193 187 184 181 179 177 173 163 143 122 135 154 157 155 149 140 65 19 22 19 13 13 12 6 7 12 17 21 25 31 32 31 31 30 26
240 239 239 240 242 243 245 245 246 247 247 249 251 253 254 255 256 258 260 261 261 261 261 261 261 262 261 260 258 256 254 255 252 235 217 212 207 198 194 194 189 183 180 181 179 175 170 160 145 145 152 154 158 162 165 166 8 8 6 5 6 6 2 3 8 13 16 20 26 31 30 28 27 25
238 237 236 237 238 238 238 238 238 238 238 239 241 244 247 249 250 252 255 258 260 262 262 259 257 256 256 255 254 253 251 250 243 223 210 207 203 198 200 201 193 185 183 183 181 178 177 172 163 159 159 160 165 173 181 196 238 326 340 346 353 358 2 2 2 6 11 14 18 25 28 26 22 21
234 234 233 234 234 234 232 231 230 229 228 228 232 236 239 241 242 243 246 251 257 260 260 257 254 252 251 250 249 247 243 239 231 216 207 206 204 201 202 201 195 191 190 187 185 185 184 181 177 172 172 179 189 194 199 211 231 272 301 317 330 341 352 358 356 360 7 9 10 15 21 23 20 17
228 229 230 232 233 231 229 228 226 224 222 223 227 230 232 235 236 235 235 237 243 249 252 251 249 248 246 245 244 241 235 229 221 211 206 207 205 202 201 202 200 198 195 192 191 192 192 190 187 183 183 191 205 217 220 223 231 250 270 288 305 320 335 345 349 354 1 4 6 10 12 14 15 14
226 226 227 230 232 229 226 226 224 221 220 222 224 225 228 234 237 235 231 231 234 240 244 245 245 244 243 242 242 238 230 223 215 208 205 206 203 199 200 206 210 205 199 198 199 199 198 199 197 193 189 186 192 222 222 218 226 240 254 272 288 300 313 326 337 347 353 358 4 8 6 4 6 9
223 226 227 230 232 228 225 225 222 217 217 219 221 224 228 235 241 240 234 231 234 237 240 241 241 243 243 241 238 232 226 220 212 206 205 203 198 195 200 208 213 208 203 203 207 206 205 206 206 205 198 178 167 231 235 229 234 240 246 261 276 286 293 304 321 337 343 349 358 4 2 357 358 3
222 225 225 228 230 227 223 222 217 211 210 213 219 225 229 236 244 244 237 233 234 235 237 239 239 241 242 240 235 228 222 216 208 203 201 196 193 198 205 206 205 205 204 206 210 212 213 213 214 214 211 195 186 224 238 234 237 241 245 255 264 271 277 284 299 318 329 338 347 353 354 352 352 359
223 225 225 227 227 224 222 220 215 209 208 211 217 223 227 233 242 244 239 234 234 233 234 237 238 237 237 237 235 231 222 212 203 198 195 194 198 206 208 203 201 204 206 207 211 214 216 217 218 220 222 221 223 235 239 240 250 257 256 257 258 260 265 272 280 293 306 321 333 340 344 345 345 353
223 226 227 227 226 224 221 219 215 212 211 211 216 221 225 232 241 245 242 237 235 233 232 234 234 234 235 235 235 230 220 211 203 198 198 202 205 206 204 204 207 209 208 208 212 215 218 221 223 227 232 236 242 251 255 260 269 268 265 264 261 257 257 261 268 278 288 301 315 324 331 334 334 340
222 226 229 228 226 225 221 218 216 214 213 213 215 218 223 231 239 245 245 242 238 235 233 232 231 231 232 235 234 227 216 209 204 202 203 206 204 202 204 210 214 213 210 211 214 218 223 228 230 232 236 240 245 250 255 262 267 267 270 272 266 257 255 256 260 267 273 282 297 308 314 321 322 324
224 227 230 229 227 225 221 217 215 215 215 216 215 215 220 230 238 243 246 246 243 240 238 234 231 229 228 230 229 222 213 208 205 204 206 206 204 204 210 215 214 212 213 218 224 228 232 234 234 233 236 240 243 243 243 247 255 262 270 275 272 263 258 256 257 260 264 269 280 287 291 305 315 316
226 227 229 229 227 223 219 217 217 217 217 217 214 210 216 226 232 236 240 242 241 240 238 235 231 227 223 221 219 216 211 207 205 205 207 207 207 209 214 214 213 215 219 225 233 236 232 233 237 238 238 241 242 240 241 247 254 261 267 273 279 279 271 262 258 256 257 261 267 271 272 277 281 285
225 227 229 229 226 221 218 219 219 218 218 217 212 210 217 224 226 229 234 236 234 233 232 230 228 223 217 213 211 211 211 210 209 209 209 209 211 214 215 216 217 219 222 227 233 233 230 236 247 250 248 248 246 243 244 250 255 259 265 273 283 290 288 278 265 257 255 257 260 263 267 269 269 275
223 225 228 228 226 223 222 223 224 223 221 218 213 213 220 225 224 224 227 230 231 230 228 225 222 218 213 209 207 206 207 210 212 212 212 212 213 215 218 218 217 217 219 225 230 232 234 243 251 253 253 254 252 251 252 255 257 262 269 277 284 290 292 287 275 264 260 258 257 258 262 265 267 271